Granite Falls, MN

2:30 AM CST on December 06, 2019 (GMT -0600)
Granite Falls

Weather History for KGDB - November, 2019

Change the Weather History Date:

Sunday, November 17, 2019

  Actual Average (WUND) Record (WUND)
Temperature  
Mean Temperature 36 °F -  
Max Temperature 40 °F - - (-1)
Min Temperature 31 °F - - (-1)
Degree Days  
Heating Degree Days 29    
Moisture  
Dew Point 32 °F    
Average Humidity 85    
Maximum Humidity 94    
Minimum Humidity 75    
Precipitation  
Precipitation 0.00 in - - ()
Sea Level Pressure  
Sea Level Pressure 29.94 in    
Wind  
Wind Speed 9 mph (WNW)    
Max Wind Speed 17 mph    
Max Gust Speed 22 mph    
Visibility 8 miles    
Events      
Averages and records for this station are not official NWS values.
T = Trace of Precipitation, MM = Missing Value Source: NWS Daily Summary

Daily Weather History Graph

Daily Weather History Graph

Search for Another Location

Airport or City:

Astronomy

Nov. 17, 2019 Rise Set
Actual Time 7:21 AM CST 4:52 PM CST
Civil Twilight 6:49 AM CST 5:24 PM CST
Nautical Twilight 6:14 AM CST 5:59 PM CST
Astronomical Twilight 5:39 AM CST 6:34 PM CST
Moon 9:26 PM CST (11/17) 12:11 PM CST (11/17)
Length of Visible Light 10h 34m
Length of Day
9h 30m
Waning Gibbous, 73% of the Moon is Illuminated
Nov 17
Waning Gibbous
Nov 19
Last Quarter
Nov 26
New
Dec 4
First Quarter
Dec 11
Full

Hourly Weather History & Observations

Time (CST) Temp. Windchill Dew Point Humidity Pressure Visibility Wind Dir Wind Speed Gust Speed Precip Events Conditions
12:18 AM 40.1 °F 35.3 °F 38.5 °F 94% 29.96 in 7.0 mi West 6.9 mph - N/A   Overcast
12:37 AM 40.3 °F 34.9 °F 38.5 °F 93% 29.96 in 7.0 mi West 8.1 mph - N/A   Overcast
12:55 AM 40.3 °F 34.9 °F 38.3 °F 93% 29.96 in 10.0 mi West 8.1 mph - N/A   Overcast
1:15 AM 40.5 °F 35.1 °F 38.3 °F 92% 29.95 in 10.0 mi West 8.1 mph - N/A   Overcast
1:16 AM 40.5 °F 35.1 °F 38.3 °F 92% 29.95 in 10.0 mi West 8.1 mph - N/A   Overcast
1:35 AM 40.3 °F 35.5 °F 37.9 °F 91% 29.95 in 10.0 mi West 6.9 mph - N/A   Overcast
1:39 AM 40.1 °F 35.3 °F 37.8 °F 91% 29.95 in 10.0 mi West 6.9 mph - N/A   Overcast
1:57 AM 40.1 °F 35.3 °F 37.8 °F 91% 29.95 in 10.0 mi West 6.9 mph - N/A   Overcast
2:16 AM 40.1 °F 35.3 °F 37.8 °F 91% 29.95 in 10.0 mi West 6.9 mph - N/A   Overcast
2:35 AM 40.3 °F 34.9 °F 37.6 °F 90% 29.94 in 10.0 mi West 8.1 mph - N/A   Overcast
2:55 AM 40.3 °F 33.9 °F 37.4 °F 89% 29.95 in 10.0 mi West 10.4 mph - N/A   Overcast
2:56 AM 40.3 °F 33.4 °F 37.4 °F 89% 29.95 in 10.0 mi West 11.5 mph - N/A   Mostly Cloudy
3:19 AM 40.5 °F 33.6 °F 36.7 °F 86% 29.95 in 10.0 mi West 11.5 mph - N/A   Mostly Cloudy
3:36 AM 40.1 °F 32.7 °F 36.5 °F 87% 29.95 in 10.0 mi WNW 12.7 mph - N/A   Overcast
3:56 AM 39.9 °F 32.9 °F 35.8 °F 85% 29.95 in 10.0 mi WNW 11.5 mph - N/A   Overcast
4:15 AM 39.2 °F 33.0 °F 35.2 °F 86% 29.95 in 10.0 mi WNW 9.2 mph - N/A   Overcast
4:35 AM 38.7 °F 33.6 °F 34.9 °F 86% 29.95 in 10.0 mi WNW 6.9 mph - N/A   Overcast
4:39 AM 38.7 °F 32.9 °F 34.9 °F 86% 29.96 in 10.0 mi WNW 8.1 mph - N/A   Overcast
4:58 AM 38.3 °F 32.5 °F 34.7 °F 87% 29.96 in 10.0 mi WNW 8.1 mph - N/A   Overcast
5:15 AM 38.5 °F 32.1 °F 34.7 °F 86% 29.95 in 7.0 mi WNW 9.2 mph - N/A   Overcast
5:35 AM 38.3 °F 32.5 °F 34.7 °F 87% 29.96 in 10.0 mi WNW 8.1 mph - N/A   Overcast
5:55 AM 38.3 °F 32.5 °F 34.7 °F 87% 29.96 in 10.0 mi WNW 8.1 mph - N/A   Overcast
5:56 AM 38.3 °F 32.5 °F 34.7 °F 87% 29.96 in 10.0 mi WNW 8.1 mph - N/A   Overcast
6:18 AM 37.8 °F 30.7 °F 34.7 °F 89% 29.96 in 10.0 mi WNW 10.4 mph - N/A   Overcast
6:37 AM 37.6 °F 31.6 °F 34.7 °F 89% 29.96 in 10.0 mi WNW 8.1 mph - N/A   Overcast
6:56 AM 37.4 °F 32.8 °F 34.3 °F 89% 29.97 in 10.0 mi NW 5.8 mph - N/A   Overcast
7:15 AM 36.7 °F 29.9 °F 33.6 °F 89% 29.98 in 7.0 mi NW 9.2 mph - N/A   Overcast
7:16 AM 36.7 °F 29.4 °F 33.4 °F 88% 29.98 in 10.0 mi NW 10.4 mph - N/A   Overcast
7:35 AM 36.5 °F 29.7 °F 32.5 °F 86% 29.98 in 7.0 mi NW 9.2 mph - N/A   Overcast
7:57 AM 36.5 °F 28.7 °F 32.5 °F 86% 29.98 in 7.0 mi WNW 11.5 mph - N/A   Overcast
8:15 AM 36.5 °F 28.7 °F 32.2 °F 84% 29.98 in 10.0 mi NW 11.5 mph - N/A   Overcast
8:35 AM 36.5 °F 28.7 °F 32.0 °F 84% 29.98 in 7.0 mi NW 11.5 mph - N/A   Overcast
8:55 AM 36.5 °F 29.2 °F 32.0 °F 84% 29.98 in 10.0 mi NW 10.4 mph - N/A   Overcast
8:56 AM 36.5 °F 29.2 °F 32.0 °F 84% 29.98 in 10.0 mi NW 10.4 mph - N/A   Overcast
9:19 AM 36.5 °F 29.7 °F 32.0 °F 84% 29.98 in 7.0 mi NW 9.2 mph - N/A   Overcast
9:36 AM 36.5 °F 29.2 °F 31.3 °F 81% 29.98 in 7.0 mi NW 10.4 mph 16.1 mph N/A   Overcast
9:56 AM 36.5 °F 28.7 °F 30.6 °F 79% 29.98 in 7.0 mi NW 11.5 mph 19.6 mph N/A   Overcast
10:15 AM 36.3 °F 28.4 °F 30.7 °F 80% 29.98 in 10.0 mi NW 11.5 mph 17.3 mph N/A   Overcast
10:16 AM 36.3 °F 28.0 °F 30.7 °F 80% 29.98 in 10.0 mi NW 12.7 mph 17.3 mph N/A   Overcast
10:35 AM 36.1 °F 28.2 °F 30.9 °F 81% 29.99 in 10.0 mi NW 11.5 mph - N/A   Overcast
10:39 AM 35.8 °F 26.9 °F 30.4 °F 81% 29.99 in 7.0 mi NW 13.8 mph 17.3 mph N/A   Overcast
10:57 AM 36.5 °F 28.7 °F 30.0 °F 77% 29.98 in 7.0 mi WNW 11.5 mph 17.3 mph N/A   Overcast
11:16 AM 36.5 °F 28.2 °F 30.2 °F 78% 29.99 in 7.0 mi WNW 12.7 mph 18.4 mph N/A   Overcast
11:35 AM 36.5 °F 27.4 °F 29.5 °F 76% 29.98 in 7.0 mi NW 15.0 mph 19.6 mph N/A   Overcast
11:36 AM 36.5 °F 26.7 °F 29.3 °F 75% 29.99 in 7.0 mi NW 17.3 mph - N/A   Overcast
11:55 AM 36.5 °F 27.4 °F 29.8 °F 77% 29.98 in 7.0 mi NW 15.0 mph - N/A   Overcast
11:56 AM 36.5 °F 28.2 °F 29.8 °F 77% 29.98 in 7.0 mi NW 12.7 mph - N/A   Overcast
12:18 PM 36.5 °F 28.7 °F 29.8 °F 77% 29.97 in 7.0 mi NW 11.5 mph - N/A   Overcast
12:36 PM 36.1 °F 28.2 °F 29.1 °F 76% 29.97 in 7.0 mi NW 11.5 mph - N/A   Overcast
12:55 PM 36.5 °F 28.2 °F 29.5 °F 76% 29.96 in 7.0 mi WNW 12.7 mph - N/A   Overcast
1:15 PM 36.5 °F 27.4 °F 29.8 °F 77% 29.96 in 7.0 mi WNW 15.0 mph - N/A   Overcast
1:16 PM 36.5 °F 27.4 °F 29.7 °F 76% 29.96 in 7.0 mi WNW 15.0 mph - N/A   Overcast
1:35 PM 36.5 °F 29.2 °F 30.0 °F 77% 29.96 in 7.0 mi WNW 10.4 mph - N/A   Overcast
1:39 PM 36.5 °F 28.2 °F 30.0 °F 77% 29.96 in 7.0 mi WNW 12.7 mph - N/A   Overcast
1:58 PM 36.5 °F 27.4 °F 30.0 °F 77% 29.95 in 7.0 mi West 15.0 mph 19.6 mph N/A   Overcast
2:15 PM 35.6 °F 26.6 °F 30.2 °F 81% 29.94 in 7.0 mi West 13.8 mph - N/A   Overcast
2:35 PM 35.1 °F 26.9 °F 30.0 °F 82% 29.94 in 7.0 mi WNW 11.5 mph - N/A   Overcast
2:36 PM 35.1 °F 25.9 °F 30.0 °F 82% 29.94 in 7.0 mi WNW 13.8 mph 18.4 mph N/A   Overcast
2:55 PM 34.7 °F 25.5 °F 29.7 °F 82% 29.94 in 7.0 mi WNW 13.8 mph 19.6 mph N/A   Overcast
2:56 PM 34.7 °F 25.9 °F 29.7 °F 82% 29.94 in 7.0 mi WNW 12.7 mph 19.6 mph N/A   Overcast
3:18 PM 34.7 °F 26.4 °F 30.0 °F 83% 29.94 in 7.0 mi WNW 11.5 mph 21.9 mph N/A   Overcast
3:37 PM 34.7 °F 26.4 °F 30.2 °F 84% 29.94 in 7.0 mi WNW 11.5 mph - N/A   Overcast
3:56 PM 34.7 °F 27.5 °F 30.2 °F 84% 29.94 in 10.0 mi NW 9.2 mph - N/A   Overcast
4:16 PM 34.7 °F 28.1 °F 30.0 °F 83% 29.94 in 7.0 mi NW 8.1 mph - N/A   Overcast
4:35 PM 34.7 °F 29.6 °F 29.8 °F 82% 29.94 in 7.0 mi NW 5.8 mph - N/A   Overcast
4:57 PM 34.7 °F 30.6 °F 30.0 °F 83% 29.93 in 7.0 mi NW 4.6 mph - N/A   Overcast
5:15 PM 34.5 °F 30.4 °F 30.0 °F 84% 29.92 in 10.0 mi NNW 4.6 mph - N/A   Overcast
5:35 PM 34.0 °F 29.8 °F 30.0 °F 85% 29.92 in 7.0 mi WNW 4.6 mph - N/A   Overcast
5:55 PM 34.0 °F - 30.0 °F 85% 29.92 in 7.0 mi Calm Calm - N/A   Overcast
6:19 PM 33.8 °F - 30.0 °F 86% 29.92 in 7.0 mi Calm Calm - N/A   Overcast
6:36 PM 34.0 °F - 30.0 °F 85% 29.91 in 7.0 mi Calm Calm - N/A   Overcast
6:56 PM 33.3 °F 30.2 °F 30.0 °F 88% 29.92 in 7.0 mi WSW 3.5 mph - N/A   Overcast
7:15 PM 33.3 °F - 30.2 °F 89% 29.91 in 7.0 mi Calm Calm - N/A   Overcast
7:35 PM 33.8 °F - 30.4 °F 87% 29.90 in 7.0 mi Calm Calm - N/A   Overcast
7:39 PM 33.8 °F - 30.2 °F 87% 29.90 in 7.0 mi Calm Calm - N/A   Overcast
7:57 PM 33.1 °F 28.7 °F 30.2 °F 89% 29.90 in 10.0 mi South 4.6 mph - N/A   Overcast
8:16 PM 33.1 °F - 30.2 °F 89% 29.89 in 7.0 mi Calm Calm - N/A   Overcast
8:35 PM 32.9 °F - 30.6 °F 91% 29.89 in 7.0 mi Calm Calm - N/A   Overcast
8:36 PM 32.9 °F - 30.6 °F 91% 29.89 in 7.0 mi Calm Calm - N/A   Overcast
8:55 PM 33.1 °F 30.0 °F 30.6 °F 90% 29.88 in 7.0 mi SE 3.5 mph - N/A   Overcast
9:36 PM 33.3 °F 30.2 °F 30.6 °F 90% 29.88 in 7.0 mi SSE 3.5 mph - N/A   Overcast
9:55 PM 33.3 °F - 30.7 °F 90% 29.88 in 7.0 mi Calm Calm - N/A   Overcast
9:56 PM 33.3 °F 30.2 °F 30.7 °F 90% 29.88 in 7.0 mi SSE 3.5 mph - N/A   Overcast
10:15 PM 33.4 °F 27.3 °F 30.7 °F 90% 29.86 in 7.0 mi SE 6.9 mph - N/A   Overcast
10:16 PM 33.4 °F 28.1 °F 30.7 °F 90% 29.86 in 7.0 mi SE 5.8 mph - N/A   Overcast
10:35 PM 33.4 °F 28.1 °F 30.9 °F 90% 29.85 in 7.0 mi SE 5.8 mph - N/A   Overcast
10:40 PM 33.4 °F 27.3 °F 30.7 °F 90% 29.84 in 7.0 mi SE 6.9 mph - N/A   Overcast
10:58 PM 33.1 °F 28.7 °F 30.7 °F 91% 29.84 in 7.0 mi SE 4.6 mph - N/A   Overcast
11:15 PM 32.7 °F 26.4 °F 30.2 °F 90% 29.83 in 7.0 mi SE 6.9 mph - N/A   Mostly Cloudy
11:35 PM 32.0 °F 25.6 °F 29.7 °F 91% 29.83 in 10.0 mi SE 6.9 mph - N/A   Clear
11:36 PM 32.0 °F 25.6 °F 29.7 °F 91% 29.83 in 10.0 mi SE 6.9 mph - N/A   Clear
11:55 PM 31.5 °F 25.8 °F 29.5 °F 92% 29.81 in 7.0 mi SE 5.8 mph - N/A   Clear